Location: Maiden
(35.5760°N, 81.2120°W)
Time: 02:48:18
(UTC-04:00)

Vanguard 2 - Pass Details

Date: 08 August 2020
Orbit: 553 x 2937 km, 32.9° (Epoch: 20 September)

Event Time Altitude Azimuth Distance (km) Brightness Sun altitude
Rises 21:25:37 0° 234° (SW) 6,780 12.7 -12.7°
Reaches altitude 10° 21:30:20 10° 231° (SW) 5,745 12.2 -13.5°
Maximum altitude 21:47:05 57° 159° (SSE) 2,783 10.0 -16.4°
Enters shadow 21:58:52 10° 84° (E) 4,175 10.8 -18.3°
Drops below altitude 10° 21:58:52 10° 84° (E) 4,177 - -18.3°
Sets 22:01:43 0° 81° (E) 4,891 - -18.8°
